Flag for U.S.A. Weather past 2 weeks in Frankfort, Kentucky, U.S.A.

Now
61 °F

Overcast.


Feels Like: 61 °F
Forecast: 57 / 69 °F
Wind: 8 mph from South

Location: Capital City Airport

Current Time: Sep 15, 2014 at 11:08:10 PM

Latest Report: Sep 15, 2014 at 9:53 PM


Visibility: 10 mi

Pressure: 30.07 "Hg

Humidity: 93%

Dew point: 59 °F

Location of FrankfortLocation

Historic Weather in Frankfort — Graph

°F

Frankfort temperature yesterday

Maximum temperature yesterday: 72 °F (at 5:53 PM)
Minimum temperature yesterday: 45 °F (at 5:53 AM)
Average temperature yesterday: 57 °F

Past Weeks' High & Low Weather Summary

 TemperatureHumidityPressure
High89 °F (Sep 5, 3:53 PM)97% (Aug 31, 9:53 PM)30.29 "Hg (Aug 31, 9:53 PM)
Low45 °F (Sep 14, 5:53 AM)32% (Sep 7, 2:53 PM)29.81 "Hg (Sep 10, 7:53 PM)
Average70 °F79%30.06 "Hg
* Reported Aug 31 9:53 PM — Sep 15 9:53 PM, Frankfort, Weather by CustomWeather, © 2014

Note: Actual official high and low records may vary slightly from our data, if they occured in-between our weather recording intervals... More about our weather records

Advertising

Frankfort weather history for previous 24 hours

 ConditionsComfort  
Time TempWeatherWind HumidityBarometerVisibility
9:53 PM
Sep 15
61 °FOvercast.8 mph93%30.07 "Hg10 mi
8:53 PM61 °FOvercast.8 mph93%30.09 "Hg10 mi
7:53 PM67 °FOvercast.6 mph66%30.07 "Hg10 mi
6:53 PM68 °FOvercast.8 mph61%30.04 "Hg10 mi
5:53 PM71 °FOvercast.6 mph51%30.13 "Hg10 mi
12:53 PM70 °FSunny.No wind57%30.15 "Hg10 mi
11:53 AM68 °FSunny.6 mph61%30.16 "Hg10 mi
10:53 AM66 °FSunny.5 mph70%30.19 "Hg10 mi
9:53 AM60 °FSunny.3 mph78%30.20 "Hg10 mi
8:53 AM54 °FSunny.No wind93%30.20 "Hg10 mi
8:00 AM49 °FFog.No wind97%30.21 "Hg3 mi
6:53 AM47 °FClear.No wind97%30.19 "Hg10 mi
5:53 AM48 °FClear.3 mph93%30.19 "Hg10 mi
4:53 AM49 °FClear.No wind93%30.18 "Hg10 mi
3:53 AM49 °FClear.No wind93%30.18 "Hg10 mi
2:53 AM50 °FClear.No wind93%30.19 "Hg10 mi
1:53 AM50 °FClear.No wind96%30.20 "Hg10 mi
12:53 AM51 °FClear.No wind96%30.20 "Hg10 mi
11:53 PM
Sep 14
53 °FClear.No wind93%30.20 "Hg10 mi
Weather by CustomWeather, © 2014

See weather overviewHow to use our weather pages